Location: Boiro
(42.6475°N, 8.8834°W)
Time: 09:43:27
(UTC+01:00)

Transit 4A - Pass Details

Date: 29 September 2023
Orbit: 864 x 979 km, 66.8° (Epoch: 02 December)

Event Time Altitude Azimuth Distance (km) Brightness Sun altitude
Rises 22:59:56 0° 327° (NNW) 3,672 11.9 -29.2°
Reaches altitude 10° 23:02:32 10° 325° (NW) 2,711 11.0 -29.6°
Maximum altitude 23:08:50 71° 243° (WSW) 1,003 8.0 -30.7°
Enters shadow 23:08:54 71° 239° (WSW) 1,003 8.0 -30.7°
